Location: Belfast
(54.5830°N, 5.9330°W)
Time: 04:38:57
(UTC+01:00)

OTV 5 (USA 277) - Visible Passes

Search period start: 21 April 2018 00:00
Search period end: 01 May 2018 00:00
Orbit: 307 x 321 km, 54.5° (Epoch: 20 April)

Date Brightness Start Highest point End Pass type
(mag) Time Alt. Az. Time Alt. Az. Time Alt. Az.
21 Apr ? 21:23:54 10° SW 21:26:21 31° SSE 21:28:50 10° E visible
21 Apr ? 22:57:43 10° W 23:00:26 84° S 23:00:33 79° ESE visible
22 Apr ? 21:37:07 10° WSW 21:39:45 51° SSE 21:42:25 10° E visible
22 Apr ? 23:11:13 10° W 23:13:49 80° W 23:13:49 80° W visible
23 Apr ? 21:50:30 10° WSW 21:53:12 74° SSE 21:55:56 10° E visible
23 Apr ? 23:24:43 10° W 23:26:55 53° W 23:26:55 53° W visible
24 Apr ? 22:03:59 10° W 22:06:42 89° SSE 22:09:07 13° E visible
24 Apr ? 23:38:14 10° W 23:39:56 33° W 23:39:56 33° W visible
25 Apr ? 22:17:30 10° W 22:20:13 90° SW 22:22:04 18° E visible
25 Apr ? 23:51:46 10° W 23:52:53 20° W 23:52:53 20° W visible
26 Apr ? 22:31:01 10° W 22:33:43 76° SSW 22:34:59 28° ESE visible
27 Apr ? 00:05:25 10° W 00:05:47 12° W 00:05:47 12° W visible
27 Apr ? 22:44:31 10° W 22:47:11 53° SSW 22:47:52 39° SSE visible
28 Apr ? 22:58:04 10° W 23:00:35 33° SSW 23:00:46 32° SSW visible
29 Apr ? 21:37:16 10° W 21:39:58 67° SSW 21:42:41 10° ESE visible
29 Apr ? 23:11:49 10° W 23:13:39 19° SW 23:13:39 19° SW visible
30 Apr ? 21:50:49 10° W 21:53:25 43° SSW 21:55:45 12° SE visible
30 Apr ? 23:26:17 10° WSW 23:26:34 11° SW 23:26:34 11° SW visible
